Skip Page Navigation
NASA JPL Caltech
NASA Logo - Jet Propulsion Laboratory + View the NASA Portal
+ Near-Earth Object (NEO) Program
Search JPL
JPL Home Earth Solar System Stars & Galaxies Technology
JPL Solar System Dynamics
BODIES ORBITS EPHEMERIDES TOOLS PHYSICAL DATA DISCOVERY FAQ SITE MAP
JPL Small-Body Database Browser
Search: [ help ]  
11848 Paullouka (1988 CW2)
Classification: Main-belt Asteroid          SPK-ID: 2011848
Ephemeris | Orbit Diagram | Orbital Elements | Physical Parameters | Discovery Circumstances ]

[ show orbit diagram ]
Orbital Elements at Epoch 2457000.5 (2014-Dec-09.0) TDB
Reference: JPL 11 (heliocentric ecliptic J2000)
 Element Value Uncertainty (1-sigma)   Units 
e .1288119079807672 4.7288e-08  
a 2.647819952600154 1.848e-08 AU
q 2.306749212516183 1.2586e-07 AU
i 1.216911148161048 5.2407e-06 deg
node 94.73721545787333 0.00035431 deg
peri 344.4154279060774 0.00035563 deg
M 116.5172133142697 3.2629e-05 deg
tp 2456491.147208008543
(2013-Jul-17.64720801)
0.00014259 JED
period 1573.733184146344
4.31
1.6475e-05
4.511e-08
d
yr
n .2287554228547823 2.3948e-09 deg/d
Q 2.988890692684124 2.086e-08 AU
  Orbit Determination Parameters
   # obs. used (total)      850  
   data-arc span      12975 days (35.52 yr)  
   first obs. used      1978-11-29  
   last obs. used      2014-06-08  
   planetary ephem.      DE431  
   SB-pert. ephem.      SB431-BIG16  
   condition code      0  
   fit RMS      .53573  
   data source      ORB  
   producer      Otto Matic  
   solution date      2014-Jun-16 13:48:21  

Additional Information
 Earth MOID = 1.32201 AU 
 T_jup = 3.380 
[ show covariance matrix ]

Ephemeris | Orbit Diagram | Orbital Elements | Physical Parameters | Discovery Circumstances ]

Physical Parameter Table
Parameter Symbol Value Units Sigma Reference Notes
absolute magnitude H 14.4 mag n/a MPO296233  

11848 Paullouka           Discovered 1988 Feb. 11 by E. W. Elst at the European Southern Observatory.
Vital-Paul Delporte (b. 1936) alias Paul Louka, is a Wallonian artist who expresses himself in composing, poetry, songs and painting. Following an encounter with Jacques Brel, he spent three years in Paris, where he performed in cabarets and theaters. He was director of the artists' organization Sabam for several years.
NOTE: some special characters may not display properly (any characters within {} are an attempt to place the proper accent above a character)
Reference: 20081212/MPCPages.arcLast Updated: 2008-12-12

Alternate Designations
 1988 CW2 = 1978 WC1 = 1999 RF43 
Ephemeris | Orbit Diagram | Orbital Elements | Physical Parameters | Discovery Circumstances ]
ABOUT SSD CREDITS/AWARDS PRIVACY/COPYRIGHT GLOSSARY LINKS
FirstGov 2014-Sep-21 04:05 UT
(server date/time)  
NASA Home Page
Site Manager:   Donald K. Yeomans
Webmaster  Alan B. Chamberlin